Location: Newark
(21.1200°N, 73.4000°E)
Time: 19:56:39
(UTC+00:00)

SR - Pass Details

Date: 06 February 2020
Orbit: 575 x 880 km, 66.7° (Epoch: 23 February)

Event Time Altitude Azimuth Distance (km) Brightness Sun altitude
Rises 14:05:07 0° 222° (SW) 3,339 ? -15.7°
Reaches altitude 10° 14:07:42 10° 231° (SW) 2,445 ? -16.3°
Maximum altitude 14:12:52 35° 296° (WNW) 1,352 ? -17.5°
Drops below altitude 10° 14:18:15 10° 2° (N) 2,532 ? -18.7°
Sets 14:20:59 0° 10° (N) 3,473 ? -19.4°
